Home > Weather > Santa Rosa > Past weeks

Flag for USA Past Weather in Santa Rosa, California, USA — Yesterday and Last 2 Weeks

Now
61 °F

Clear.


Feels Like: 61 °F
Forecast: 52 / 88 °F
Wind: 6 mph from South

Location: Santa Rosa Sonoma County Airport

Current Time: Jun 28, 2016 at 10:37:48 PM

Latest Report: Jun 28, 2016 at 9:53 PM


Visibility: 9 mi

Pressure: 29.88 "Hg

Humidity: 67%

Dew Point: 50 °F

Location of Santa RosaLocation

Past Weather in Santa Rosa — Graph

°F

Santa Rosa Temperature Yesterday

Maximum temperature yesterday: 97 °F (at 6:53 PM)
Minimum temperature yesterday: 49 °F (at 5:53 AM)
Average temperature yesterday: 72 °F

High & Low Weather Summary for the Past Weeks

 TemperatureHumidityPressure
High97 °F (Jun 27, 6:53 PM)100% (Jun 18, 5:53 AM)30.18 "Hg (Jun 18, 5:53 AM)
Low46 °F (Jun 20, 5:53 AM)12% (Jun 20, 4:53 PM)29.84 "Hg (Jun 25, 5:53 PM)
Average66 °F59%29.97 "Hg
* Reported Jun 13 8:53 PM — Jun 28 8:53 PM, Santa Rosa, Weather by CustomWeather, © 2016

Note: Actual official high and low records may vary slightly from our data, if they occured in-between our weather recording intervals... More about our weather records

Advertising

Santa Rosa Weather History for the Previous 24 Hours

Scroll right to see more
 ConditionsComfort  
Time TempWeatherWind HumidityBarometerVisibility
8:53 PM
Tue, Jun 28
65 °FSunny.9 mph61%29.88 "Hg9 mi
7:53 PM71 °FSunny.7 mph51%29.86 "Hg9 mi
6:53 PM76 °FSunny.9 mph43%29.86 "Hg10 mi
5:53 PM78 °FSunny.9 mph40%29.86 "Hg10 mi
4:53 PM82 °FSunny.13 mph34%29.87 "Hg10 mi
3:53 PM87 °FSunny.14 mph33%29.88 "Hg10 mi
2:53 PM90 °FSunny.12 mph29%29.90 "Hg10 mi
1:53 PM88 °FSunny.8 mph31%29.91 "Hg10 mi
12:53 PM87 °FSunny.10 mph29%29.93 "Hg10 mi
11:53 AM84 °FSunny.7 mph31%29.93 "Hg10 mi
10:53 AM79 °FSunny.5 mph39%29.93 "Hg10 mi
9:53 AM71 °FSunny.No wind47%29.95 "Hg10 mi
8:53 AM64 °FSunny.3 mph61%29.96 "Hg10 mi
7:53 AM58 °FSunny.No wind72%29.96 "Hg10 mi
6:53 AM53 °FSunny.3 mph86%29.95 "Hg10 mi
5:53 AM51 °FClear.5 mph86%29.93 "Hg7 mi
4:53 AM53 °FClear.No wind83%29.92 "Hg9 mi
3:53 AM54 °FClear.No wind80%29.92 "Hg10 mi
2:53 AM56 °FClear.5 mph77%29.91 "Hg10 mi
1:53 AM58 °FClear.5 mph72%29.91 "Hg10 mi
12:53 AM60 °FClear.5 mph67%29.91 "Hg10 mi
11:53 PM
Mon, Jun 27
62 °FClear.5 mph62%29.91 "Hg10 mi
10:53 PM65 °FClear.8 mph59%29.91 "Hg10 mi
Weather by CustomWeather, © 2016

See weather overviewHow to use our weather pages